Location: B?dimalle
(17.1788°N, 80.5377°E)
Time: 16:09:37
(UTC+00:00)

Vanguard 1 - Pass Details

Date: 25 February 2026
Orbit: 653 x 3818 km, 34.2° (Epoch: 9 March)

Event Time Altitude Azimuth Distance (km) Brightness Sun altitude
Rises 15:33:48 0° 295° (WNW) 6,653 15.0 -41.4°
Reaches altitude 10° 15:37:46 10° 292° (WNW) 5,961 14.6 -42.4°
Maximum altitude 15:57:43 58° 219° (SW) 4,173 13.0 -47.1°
Enters shadow 16:06:24 44° 169° (S) 4,669 13.1 -49.2°
